Simultaneous Nadir Overpasses (SNOs) Predictions

Prediction of SNOs between GOES-17 and METOP-B Satellite Orbit:

Table of predicted SNOs for the next 14.0 days since TLE Epoch: 11/2/2019
Index Date Time (GOES-17) GOES-17 Lat,Lon METOP-B Lat,Lon Distance(km) Time Diff (sec)
1 11/02/2019 06:40:01 0.00,-137.21 -0.01,-137.26 5.75 80
2 11/04/2019 18:38:15 -0.01,-137.20 -0.07,-136.82 42.46 80
3 11/06/2019 06:57:16 0.01,-137.19 -0.93,-141.42 481.62 80
4 11/07/2019 06:33:58 0.01,-137.19 0.20,-136.43 86.86 80
5 11/08/2019 18:52:50 -0.01,-137.17 0.85,-140.98 434.49 80
6 11/09/2019 18:34:52 -0.01,-137.16 -0.29,-135.99 133.68 80
7 11/11/2019 06:53:52 0.01,-137.15 -0.77,-140.58 391.23 80
8 11/12/2019 06:33:13 0.01,-137.14 0.37,-135.59 176.45 80
9 11/13/2019 18:49:26 -0.02,-137.11 0.68,-140.14 346.34 80
10 11/14/2019 18:31:27 -0.01,-137.09 -0.45,-135.15 220.86 80




NCC Satellite Simultaneous Nadir Overpasses (SNOs) Prediction Service
